Location: Bailleul
(50.3375°N, 2.8513°E)
Time: 20:29:34
(UTC+00:00)

USA 245 - Pass Details

Date: 19 April 2021
Orbit: 266 x 984 km, 97.9° (Epoch: 10 May)

Event Time Altitude Azimuth Distance (km) Brightness Sun altitude
Exits shadow 20:44:36 32° 158° (SSE) 909 3.9 -16.5°
Maximum altitude 20:46:14 80° 76° (ENE) 501 3.0 -16.6°
Drops below altitude 10° 20:49:27 10° 348° (NNW) 1,514 6.4 -17.0°
Sets 20:51:14 0° 348° (NNW) 2,287 7.5 -17.2°
